Rbgn^[z[y[W
メイン
   新天体発見情報
     Comet C/2020 B3 (Rankin)
投稿するにはまず登録を

スレッド表示 | 新しいものから 前のトピック | 次のトピック | 下へ
投稿者 スレッド
佐藤裕久
投稿日時: 2020-3-2 21:43
モデレータ
登録日: 2005-6-12
居住地: 日本
投稿: 2505
オンライン
Comet C/2020 B3 (Rankin)

1月20日UT、この天体はMt Lemmon サーベイ(G96)で、彗星としてD. Rankinにより通報された。
拡散状の12"のコマとp.a.270°に9" の尾がある。
追跡が小惑星センターのPCCPに公表された。1月30日、R. Werykの報告では、1月25日にPan-
STARRS 2 (F52)で得た発見前の画像を見つけた。3".4のコマが見える。

彗星機能の追加報告は次の通り:

OC   Date     Reporter           Coma    Tail    PA          Exposures
Q62  Jan. 29  H. Sato             10"                        14x60s
W87  Jan. 30  P. Breitenstein                    280
G96  Jan. 31  D. Rankin           10"     12"    270
691  Jan. 31  J. V. Scotti         8"                        2x150s
204  Feb.  2  L. Buzzi            10"                        100x30s
X02  Feb.  3  E. Guido             5"                        16x120s
204  Feb.  4  L. Buzzi            10"                        196x20s

発見位置は次のとおり、

     2020 UT             R.A. (2000) Decl.       Mag.   Observer
     Jan. 29.44428   12 22 36.26   - 8 10 01.5   19.3   Rankin
          29.44943   12 22 36.36   - 8 10 00.9   19.5     "
          29.45461   12 22 36.44   - 8 10 00.2   19.4     "
          29.45977   12 22 36.52   - 8 09 59.1   19.4     "
          29.50601   12 22 37.25   - 8 09 51.9   19.6     "
          29.52031   12 22 37.45   - 8 09 49.8   19.5     "
          29.53485   12 22 37.65   - 8 09 47.4   19.5     "

MPCの楕円軌道要素と位置推算表は次のとおり、

Orbital elements:
    C/2020 B3 (Rankin)                                                          
Epoch 2019 Oct. 4.0 TT = JDT 2458760.5                                          
T 2019 Oct. 22.88444 TT                                 Bell                    
q   3.3555463            (2000.0)            P               Q                  
z  +0.0045064      Peri.  325.92425     -0.87698517     -0.47918215             
 +/-0.0024247      Node   185.79762     +0.48044894     -0.87568131             
e   0.9848784      Incl.   20.75545     -0.00811291     -0.05972202             
From 44 observations 2020 Jan. 25-Feb. 6, mean residual 0".5.                   
                                                                                
    C/2020 B3 (Rankin)                                                          
Epoch 2020 May 31.0 TT = JDT 2459000.5                                          
T 2019 Oct. 22.86080 TT                                 Bell                    
q   3.3555579            (2000.0)            P               Q                  
z  +0.0046259      Peri.  325.92292     -0.87696224     -0.47922451             
 +/-0.0024247      Node   185.79617     +0.48049061     -0.87566060             
e   0.9844776      Incl.   20.75765     -0.00812417     -0.05968568             
From 44 observations 2020 Jan. 25-Feb. 6, mean residual 0".5.                   
                                                                                
Ephemeris:
Date    TT    R. A. (2000) Decl.     Delta      r    Elong.  Phase   m1
2020 01 07    12 12 22.0 -08 30 27   3.1261  3.4294    99.6    16.4  19.3
...
2020 01 22    12 20 07.3 -08 25 06   2.9549  3.4607   113.0    15.2  19.2
...
2020 01 30    12 22 45.1 -08 08 31   2.8723  3.4795   120.7    14.1  19.2
...
2020 02 05    12 24 01.4 -07 49 32   2.8161  3.4946   126.6    13.1  19.2
2020 02 06    12 24 10.6 -07 45 50   2.8073  3.4972   127.6    12.9  19.2
2020 02 07    12 24 18.9 -07 41 58   2.7987  3.4998   128.6    12.7  19.2
...
2020 02 13    12 24 48.2 -07 15 36   2.7505  3.5159   134.7    11.5  19.2
...
2020 02 21    12 24 35.5 -06 32 13   2.6972  3.5386   143.2     9.6  19.1
...
2020 03 07    12 21 58.0 -04 49 25   2.6381  3.5847   159.5     5.6  19.2

(MPEC 2020-C111、CBET 4724)

スレッド表示 | 新しいものから 前のトピック | 次のトピック | トップ

投稿するにはまず登録を
 
© 1999 Tsutomu Seki.